UAL2098 KBOS-KAID

Flight info

Callsign UAL2098
Flight time N/A
Altitude 32000
Route REVSS6 REVSS CTR HNK PSB AIR
Aircraft B38M/M-SDE1FGHILORVWXY/HB1

Departure

Time 2026-05-04 13:29
Airport Boston Logan International Airport (KBOS)

Arrival

Time N/A
Airport Anderson Municipal Darlington Field (KAID)
Time Latitude Longitude Altitude Speed Heading
2026-05-04 12:26 42.36127 -71.01656 28 ft 0 kts 290°
2026-05-04 12:29 42.36127 -71.01657 28 ft 11 kts 290°
2026-05-04 12:36 42.36127 -71.01656 28 ft 0 kts 290°
2026-05-04 12:45 42.36127 -71.01655 28 ft 0 kts 290°
2026-05-04 12:55 42.36127 -71.01654 28 ft 0 kts 290°
2026-05-04 12:57 42.36126 -71.01654 28 ft 0 kts 290°
2026-05-04 13:05 42.36126 -71.01653 28 ft 0 kts 290°
2026-05-04 13:14 42.36126 -71.01652 28 ft 0 kts 290°
2026-05-04 13:16 42.36122 -71.01637 28 ft 3 kts 290°
2026-05-04 13:16 42.36115 -71.01612 29 ft 3 kts 290°
2026-05-04 13:16 42.36109 -71.01591 29 ft 3 kts 288°
2026-05-04 13:16 42.36106 -71.01565 30 ft 3 kts 263°
2026-05-04 13:17 42.36112 -71.01544 30 ft 3 kts 221°
2026-05-04 13:17 42.36129 -71.01531 30 ft 3 kts 200°
2026-05-04 13:17 42.36141 -71.01525 30 ft 1 kts 199°
2026-05-04 13:17 42.36144 -71.01524 30 ft 0 kts 199°
2026-05-04 13:20 42.36144 -71.01523 30 ft 0 kts 199°
2026-05-04 13:21 42.36141 -71.01525 30 ft 4 kts 200°
2026-05-04 13:21 42.36096 -71.01546 30 ft 9 kts 199°
2026-05-04 13:22 42.36035 -71.01575 31 ft 10 kts 199°
2026-05-04 13:22 42.35968 -71.01608 32 ft 10 kts 201°
2026-05-04 13:22 42.35903 -71.01612 33 ft 10 kts 144°
2026-05-04 13:22 42.35919 -71.01533 31 ft 12 kts 27°
2026-05-04 13:23 42.36002 -71.01494 31 ft 14 kts 20°
2026-05-04 13:23 42.36096 -71.01448 31 ft 15 kts 20°
2026-05-04 13:23 42.36208 -71.01397 28 ft 19 kts 20°
2026-05-04 13:23 42.36338 -71.01333 27 ft 19 kts 22°
2026-05-04 13:24 42.36466 -71.01270 27 ft 21 kts 20°
2026-05-04 13:24 42.36594 -71.01208 29 ft 17 kts 20°
2026-05-04 13:24 42.36704 -71.01153 30 ft 18 kts 18°
2026-05-04 13:25 42.36925 -71.01198 27 ft 16 kts 42°
2026-05-04 13:25 42.37008 -71.01094 30 ft 18 kts 28°
2026-05-04 13:25 42.37131 -71.01023 27 ft 21 kts 29°
2026-05-04 13:25 42.37261 -71.00930 24 ft 22 kts 24°
2026-05-04 13:26 42.37410 -71.00852 27 ft 24 kts 19°
2026-05-04 13:26 42.37566 -71.00777 27 ft 24 kts 20°
2026-05-04 13:26 42.37723 -71.00700 31 ft 24 kts 20°
2026-05-04 13:26 42.37837 -71.00627 31 ft 14 kts 57°
2026-05-04 13:27 42.37810 -71.00500 29 ft 16 kts 140°
2026-05-04 13:27 42.37701 -71.00514 29 ft 17 kts 200°
2026-05-04 13:27 42.37587 -71.00568 29 ft 18 kts 200°
2026-05-04 13:27 42.37554 -71.00583 28 ft 0 kts 198°
2026-05-04 13:28 42.37551 -71.00584 28 ft 4 kts 198°
2026-05-04 13:28 42.37379 -71.00668 28 ft 65 kts 200°
2026-05-04 13:28 42.36687 -71.00999 30 ft 142 kts 199°
2026-05-04 13:28 42.35589 -71.01496 340 ft 182 kts 199°
2026-05-04 13:29 42.34395 -71.01629 1597 ft 169 kts 173°
2026-05-04 13:29 42.33387 -71.00703 2536 ft 189 kts 139°
2026-05-04 13:29 42.32536 -70.99242 3014 ft 211 kts 135°
2026-05-04 13:29 42.31633 -70.97557 3167 ft 234 kts 122°
2026-05-04 13:30 42.31262 -70.95347 3184 ft 253 kts 87°
2026-05-04 13:30 42.31555 -70.92931 3338 ft 269 kts 78°
2026-05-04 13:30 42.31926 -70.90368 3696 ft 285 kts 79°
2026-05-04 13:30 42.32299 -70.87683 4188 ft 297 kts 79°
2026-05-04 13:31 42.32685 -70.84923 4779 ft 301 kts 79°
2026-05-04 13:31 42.33062 -70.82135 4923 ft 301 kts 84°
2026-05-04 13:31 42.32865 -70.79383 4947 ft 293 kts 113°
2026-05-04 13:31 42.31986 -70.76921 5002 ft 292 kts 122°
2026-05-04 13:32 42.31029 -70.74549 4993 ft 290 kts 129°
2026-05-04 13:32 42.29612 -70.72753 4978 ft 274 kts 158°
2026-05-04 13:32 42.27848 -70.72036 5010 ft 260 kts 183°
2026-05-04 13:32 42.26066 -70.72152 5014 ft 256 kts 192°
2026-05-04 13:33 42.24297 -70.72425 4993 ft 256 kts 194°
2026-05-04 13:33 42.22534 -70.72751 5006 ft 256 kts 194°
2026-05-04 13:33 42.20792 -70.73218 5352 ft 250 kts 209°
2026-05-04 13:33 42.19459 -70.74546 6474 ft 238 kts 234°
2026-05-04 13:34 42.18673 -70.76484 7340 ft 242 kts 254°
2026-05-04 13:34 42.18258 -70.78687 8379 ft 244 kts 257°
2026-05-04 13:34 42.17875 -70.80948 9331 ft 250 kts 258°
2026-05-04 13:34 42.17516 -70.83252 10296 ft 254 kts 259°
2026-05-04 13:35 42.17159 -70.85661 10857 ft 272 kts 259°
2026-05-04 13:35 42.16409 -70.90947 12094 ft 297 kts 260°
2026-05-04 13:35 42.16142 -70.93710 12985 ft 300 kts 272°
2026-05-04 13:36 42.16565 -70.96475 13830 ft 304 kts 284°
2026-05-04 13:36 42.17129 -70.99209 14517 ft 309 kts 284°
2026-05-04 13:36 42.17717 -71.02014 15274 ft 312 kts 284°
2026-05-04 13:36 42.18320 -71.04846 16001 ft 316 kts 284°
2026-05-04 13:37 42.18937 -71.07717 16721 ft 320 kts 285°
2026-05-04 13:37 42.19562 -71.10617 17429 ft 324 kts 285°
2026-05-04 13:37 42.20195 -71.13549 18124 ft 328 kts 285°
2026-05-04 13:37 42.20618 -71.15510 18520 ft 330 kts 285°
2026-05-04 13:38 42.21481 -71.19511 19335 ft 334 kts 285°
2026-05-04 13:38 42.22122 -71.22488 19916 ft 336 kts 285°
2026-05-04 13:38 42.22776 -71.25533 20487 ft 339 kts 285°
2026-05-04 13:38 42.23435 -71.28603 21064 ft 342 kts 285°
2026-05-04 13:39 42.24099 -71.31698 21631 ft 345 kts 285°
2026-05-04 13:39 42.24768 -71.34822 22204 ft 348 kts 285°
2026-05-04 13:39 42.25440 -71.37969 22750 ft 351 kts 285°
2026-05-04 13:39 42.26119 -71.41147 23305 ft 353 kts 285°
2026-05-04 13:40 42.26792 -71.44308 23780 ft 356 kts 285°
2026-05-04 13:40 42.27478 -71.47534 24227 ft 359 kts 285°
2026-05-04 13:40 42.28167 -71.50777 24678 ft 361 kts 285°
2026-05-04 13:40 42.28860 -71.54044 25130 ft 363 kts 285°
2026-05-04 13:41 42.29558 -71.57337 25555 ft 366 kts 285°
2026-05-04 13:41 42.30259 -71.60653 25976 ft 368 kts 285°
2026-05-04 13:41 42.30963 -71.63987 26398 ft 371 kts 285°
2026-05-04 13:42 42.32382 -71.70726 27217 ft 375 kts 285°
2026-05-04 13:42 42.33088 -71.74080 27611 ft 378 kts 285°
2026-05-04 13:42 42.33807 -71.77507 28002 ft 380 kts 285°
2026-05-04 13:42 42.34396 -71.80983 28366 ft 381 kts 274°
2026-05-04 13:43 42.34320 -71.84567 28780 ft 383 kts 268°
2026-05-04 13:43 42.34199 -71.88184 29072 ft 387 kts 268°
2026-05-04 13:43 42.34064 -71.91819 29479 ft 388 kts 268°
2026-05-04 13:43 42.33916 -71.95454 29979 ft 387 kts 267°
2026-05-04 13:44 42.33760 -71.99075 30397 ft 385 kts 267°
2026-05-04 13:44 42.33604 -72.02639 30791 ft 385 kts 267°
2026-05-04 13:44 42.33443 -72.06245 31179 ft 384 kts 267°
2026-05-04 13:44 42.33282 -72.09842 31557 ft 383 kts 267°
2026-05-04 13:45 42.33119 -72.13437 31880 ft 384 kts 267°
2026-05-04 13:45 42.32955 -72.17041 31939 ft 383 kts 267°
2026-05-04 13:45 42.32626 -72.24203 31929 ft 381 kts 267°
2026-05-04 13:46 42.32293 -72.31351 31915 ft 381 kts 267°
2026-05-04 13:46 42.31958 -72.38448 31907 ft 381 kts 267°
2026-05-04 13:47 42.31616 -72.45588 31910 ft 381 kts 267°
2026-05-04 13:47 42.31270 -72.52734 31909 ft 381 kts 267°
2026-05-04 13:48 42.30919 -72.59876 31911 ft 381 kts 267°
2026-05-04 13:48 42.30566 -72.66964 31910 ft 381 kts 267°
2026-05-04 13:49 42.30208 -72.74088 31909 ft 380 kts 267°
2026-05-04 13:49 42.29844 -72.81219 31913 ft 380 kts 267°
2026-05-04 13:50 42.29477 -72.88343 31908 ft 380 kts 267°
2026-05-04 13:50 42.29065 -72.95410 31884 ft 380 kts 264°
2026-05-04 13:51 42.28425 -73.02542 31899 ft 385 kts 264°
2026-05-04 13:51 42.27801 -73.09711 31892 ft 384 kts 264°
2026-05-04 13:52 42.26861 -73.20458 31904 ft 384 kts 264°
2026-05-04 13:53 42.26233 -73.27573 31907 ft 384 kts 264°
2026-05-04 13:53 42.25597 -73.34742 31899 ft 385 kts 265°
2026-05-04 13:54 42.24631 -73.45513 31902 ft 386 kts 265°
2026-05-04 13:55 42.23660 -73.56237 31885 ft 385 kts 264°